Location: Brompton
(51.4000°N, 0.5333°E)
Time: 18:43:49
(UTC+00:00)

USA 281 - Pass Details

Date: 11 May 2021
Orbit: 1078 x 1081 km, 106.0° (Epoch: 18 June)

Event Time Altitude Azimuth Distance (km) Brightness Sun altitude
Exits shadow 23:36:55 - 115° (ESE) 3,360 5.5 -20.4°
Reaches altitude 10° 23:38:10 10° 111° (ESE) 2,919 5.2 -20.4°
Maximum altitude 23:44:04 37° 46° (NE) 1,613 4.5 -20.4°
Drops below altitude 10° 23:50:00 10° 342° (NNW) 2,933 6.6 -20.5°
Sets 23:52:42 0° 335° (NNW) 3,893 7.3 -20.5°
